,,Stat6,,Stat2,,Stat8,,Stat9,,Stat10,,Wind1,,Wind1,
time,status,PA1M_AVG,status,PR1M_SUM,status,RH1M_AVG,status,SR1M_AVG,status,TA1M_AVG,status,W1dAve1m,status,W1sAve1m,
2005-11-26, 00:00:00,VALID,917.23,VALID,0,VALID,100,VALID,0.0169808,VALID,18.1425,VALID,99,VALID,0.326853,
2005-11-26, 00:01:00,VALID,917.222,VALID,0,VALID,100,VALID,0,VALID,18.1787,VALID,99,VALID,0.176525,
2005-11-26, 00:02:00,VALID,917.22,VALID,0,VALID,100,VALID,0,VALID,18.1972,VALID,99,VALID,0.139509,
2005-11-26, 00:03:00,VALID,917.216,VALID,0,VALID,100,VALID,-0.101885,VALID,18.241,VALID,99,VALID,0,
2005-11-26, 00:04:00,VALID,917.212,VALID,0,VALID,100,VALID,-0.0849042,VALID,18.2701,VALID,99,VALID,0.0855903,
2005-11-26, 00:05:00,VALID,917.195,VALID,0,VALID,100,VALID,-0.0849042,VALID,18.3705,VALID,99,VALID,0.435138,
2005-11-26, 00:06:00,VALID,917.168,VALID,0,VALID,100,VALID,-0.0849042,VALID,18.3767,VALID,98,VALID,0.206676,
2005-11-26, 00:07:00,VALID,917.16,VALID,0,VALID,100,VALID,-0.0849042,VALID,18.2701,VALID,98,VALID,0.0261628,
2005-11-26, 00:08:00,VALID,917.171,VALID,0,VALID,100,VALID,-0.0849042,VALID,18.2025,VALID,98,VALID,0,
2005-11-26, 00:09:00,VALID,917.141,VALID,0,VALID,100,VALID,-0.101885,VALID,18.1924,VALID,98,VALID,0,
2005-11-26, 00:10:00,VALID,917.15,VALID,0,VALID,100,VALID,-0.101885,VALID,18.1896,VALID,98,VALID,0,
2005-11-26, 00:11:00,VALID,917.157,VALID,0,VALID,99.9303,VALID,-0.101885,VALID,18.1538,VALID,98,VALID,0,
2005-11-26, 00:12:00,VALID,917.169,VALID,0,VALID,99.7266,VALID,-0.0849042,VALID,18.1148,VALID,98,VALID,0,
2005-11-26, 00:13:00,VALID,917.196,VALID,0,VALID,99.7358,VALID,-0.0849042,VALID,18.089,VALID,98,VALID,0,
2005-11-26, 00:14:00,VALID,917.207,VALID,0,VALID,99.9489,VALID,-0.101885,VALID,18.1023,VALID,98,VALID,0,
2005-11-26, 00:15:00,VALID,917.226,VALID,0,VALID,99.8754,VALID,-0.0679233,VALID,18.0927,VALID,98,VALID,0.21513,
2005-11-26, 00:16:00,VALID,917.257,VALID,0,VALID,99.807,VALID,-0.0849042,VALID,18.0371,VALID,99,VALID,0.4625,
2005-11-26, 00:17:00,VALID,917.285,VALID,0,VALID,99.854,VALID,-0.101885,VALID,17.9985,VALID,99,VALID,0.239383,
2005-11-26, 00:18:00,VALID,917.295,VALID,0,VALID,100,VALID,-0.0849042,VALID,17.9953,VALID,99,VALID,0.331395,
2005-11-26, 00:19:00,VALID,917.295,VALID,0,VALID,100,VALID,-0.0849042,VALID,18.0024,VALID,99,VALID,0.412674,
2005-11-26, 00:20:00,VALID,917.294,VALID,0,VALID,100,VALID,-0.101885,VALID,18.0375,VALID,99,VALID,0.29633,
2005-11-26, 00:21:00,VALID,917.28,VALID,0,VALID,100,VALID,-0.101885,VALID,18.0698,VALID,99,VALID,0.0692224,
2005-11-26, 00:22:00,VALID,917.267,VALID,0,VALID,100,VALID,-0.101885,VALID,18.1413,VALID,99,VALID,0.0638021,
2005-11-26, 00:23:00,VALID,917.247,VALID,0,VALID,100,VALID,-0.101885,VALID,18.1379,VALID,65,VALID,0.866257,
2005-11-26, 00:24:00,VALID,917.213,VALID,0,VALID,99.9527,VALID,-0.0849042,VALID,17.9637,VALID,53,VALID,1.36699,
2005-11-26, 00:25:00,VALID,917.21,VALID,0,VALID,100,VALID,-0.0849042,VALID,18.0149,VALID,44,VALID,0.852307,
2005-11-26, 00:26:00,VALID,917.227,VALID,0,VALID,100,VALID,-0.0679233,VALID,17.9833,VALID,310,VALID,0.467478,
2005-11-26, 00:27:00,VALID,917.222,VALID,0,VALID,100,VALID,-0.0849042,VALID,18.031,VALID,245,VALID,0.810213,
2005-11-26, 00:28:00,VALID,917.217,VALID,0,VALID,100,VALID,-0.101885,VALID,18.0892,VALID,200,VALID,0.825945,
2005-11-26, 00:29:00,VALID,917.226,VALID,0,VALID,100,VALID,-0.0679233,VALID,18.1379,VALID,214,VALID,0.776677,
2005-11-26, 00:30:00,VALID,917.235,VALID,0,VALID,100,VALID,-0.101885,VALID,18.2053,VALID,224,VALID,0.426054,
2005-11-26, 00:31:00,VALID,917.243,VALID,0,VALID,100,VALID,-0.101885,VALID,18.2604,VALID,224,VALID,0.345385,
2005-11-26, 00:32:00,VALID,917.255,VALID,0,VALID,100,VALID,-0.0849042,VALID,18.2994,VALID,224,VALID,0.174055,
2005-11-26, 00:33:00,VALID,917.26,VALID,0,VALID,100,VALID,-0.0679233,VALID,18.218,VALID,224,VALID,0.33085,
2005-11-26, 00:34:00,VALID,917.246,VALID,0,VALID,100,VALID,-0.101885,VALID,18.1963,VALID,224,VALID,0.234575,
2005-11-26, 00:35:00,VALID,917.217,VALID,0,VALID,100,VALID,-0.101885,VALID,18.1898,VALID,224,VALID,0.0525073,
2005-11-26, 00:36:00,VALID,917.22,VALID,0,VALID,100,VALID,-0.101885,VALID,18.2219,VALID,224,VALID,0.182413,
2005-11-26, 00:37:00,VALID,917.221,VALID,0,VALID,100,VALID,-0.118866,VALID,18.2865,VALID,224,VALID,0.110119,
2005-11-26, 00:38:00,VALID,917.234,VALID,0,VALID,100,VALID,-0.101885,VALID,18.3516,VALID,225,VALID,0.586285,
2005-11-26, 00:39:00,VALID,917.228,VALID,0,VALID,100,VALID,-0.0849042,VALID,18.3897,VALID,237,VALID,0.734756,
2005-11-26, 00:40:00,VALID,917.211,VALID,0,VALID,100,VALID,-0.101885,VALID,18.3864,VALID,237,VALID,0.529447,
2005-11-26, 00:41:00,VALID,917.202,VALID,0,VALID,100,VALID,-0.118866,VALID,18.3645,VALID,237,VALID,0.383743,
2005-11-26, 00:42:00,VALID,917.182,VALID,0,VALID,100,VALID,-0.135847,VALID,18.3347,VALID,237,VALID,0.155419,
2005-11-26, 00:43:00,VALID,917.165,VALID,0,VALID,100,VALID,-0.101885,VALID,18.3553,VALID,237,VALID,0.00613839,
2005-11-26, 00:44:00,VALID,917.142,VALID,0,VALID,100,VALID,-0.101885,VALID,18.3904,VALID,237,VALID,0.0610119,
2005-11-26, 00:45:00,VALID,917.141,VALID,0,VALID,100,VALID,-0.135847,VALID,18.4351,VALID,237,VALID,0.163318,
2005-11-26, 00:46:00,VALID,917.139,VALID,0,VALID,100,VALID,-0.101885,VALID,18.4843,VALID,237,VALID,0.120617,
2005-11-26, 00:47:00,VALID,917.13,VALID,0,VALID,100,VALID,-0.101885,VALID,18.4972,VALID,238,VALID,0.289063,
2005-11-26, 00:48:00,VALID,917.119,VALID,0,VALID,100,VALID,0,VALID,18.521,VALID,244,VALID,0.409598,
2005-11-26, 00:49:00,VALID,917.128,VALID,0,VALID,100,VALID,0,VALID,18.5662,VALID,265,VALID,0.298328,
2005-11-26, 00:50:00,VALID,917.117,VALID,0,VALID,100,VALID,-0.0339617,VALID,18.5831,VALID,265,VALID,0.0512355,
2005-11-26, 00:51:00,VALID,917.108,VALID,0,VALID,100,VALID,-0.0339617,VALID,18.599,VALID,265,VALID,0,
2005-11-26, 00:52:00,VALID,917.105,VALID,0,VALID,100,VALID,-0.0169808,VALID,18.6218,VALID,265,VALID,0,
2005-11-26, 00:53:00,VALID,917.095,VALID,0,VALID,100,VALID,-0.0169808,VALID,18.6248,VALID,265,VALID,0.0120908,
2005-11-26, 00:54:00,VALID,917.088,VALID,0,VALID,100,VALID,0,VALID,18.647,VALID,265,VALID,0.160156,
2005-11-26, 00:55:00,VALID,917.076,VALID,0,VALID,99.0514,VALID,0,VALID,18.5697,VALID,265,VALID,0.101162,
2005-11-26, 00:56:00,VALID,917.064,VALID,0,VALID,98.8736,VALID,0.0169808,VALID,18.4591,VALID,265,VALID,0,
2005-11-26, 00:57:00,VALID,917.047,VALID,0,VALID,99.0745,VALID,-0.0169808,VALID,18.4605,VALID,265,VALID,0,
2005-11-26, 00:58:00,VALID,917.04,VALID,0,VALID,99.1737,VALID,0,VALID,18.4307,VALID,265,VALID,0,
2005-11-26, 00:59:00,VALID,917.04,VALID,0,VALID,99.381,VALID,0,VALID,18.4275,VALID,265,VALID,0.0330669,
2005-11-26, 01:00:00,VALID,917.032,VALID,0,VALID,99.7342,VALID,0,VALID,18.4626,VALID,265,VALID,0.376758,
2005-11-26, 01:01:00,VALID,917.026,VALID,0,VALID,100,VALID,0,VALID,18.5498,VALID,251,VALID,0.564406,
2005-11-26, 01:02:00,VALID,917.013,VALID,0,VALID,99.8095,VALID,0,VALID,18.5371,VALID,221,VALID,0.464134,
2005-11-26, 01:03:00,VALID,916.986,VALID,0,VALID,99.9021,VALID,0,VALID,18.5304,VALID,218,VALID,0.092722,
2005-11-26, 01:04:00,VALID,916.971,VALID,0,VALID,100,VALID,0,VALID,18.5699,VALID,218,VALID,0.0522204,
2005-11-26, 01:05:00,VALID,916.953,VALID,0,VALID,100,VALID,0,VALID,18.5692,VALID,218,VALID,0.00319602,
2005-11-26, 01:06:00,VALID,916.965,VALID,0,VALID,99.9692,VALID,0,VALID,18.5761,VALID,218,VALID,0,
2005-11-26, 01:07:00,VALID,916.963,VALID,0,VALID,99.8756,VALID,0,VALID,18.5597,VALID,218,VALID,0,
2005-11-26, 01:08:00,VALID,916.967,VALID,0,VALID,99.7141,VALID,0,VALID,18.547,VALID,218,VALID,0.0621528,
2005-11-26, 01:09:00,VALID,916.982,VALID,0,VALID,99.6849,VALID,0,VALID,18.5401,VALID,218,VALID,0.318714,
2005-11-26, 01:10:00,VALID,916.949,VALID,0,VALID,99.8477,VALID,0.0169808,VALID,18.5634,VALID,218,VALID,0.0872962,
2005-11-26, 01:11:00,VALID,916.933,VALID,0,VALID,99.7968,VALID,0,VALID,18.5888,VALID,218,VALID,0,
2005-11-26, 01:12:00,VALID,916.931,VALID,0,VALID,99.3416,VALID,0,VALID,18.5923,VALID,218,VALID,0,
2005-11-26, 01:13:00,VALID,916.935,VALID,0,VALID,99.278,VALID,0.0169808,VALID,18.6149,VALID,218,VALID,0,
2005-11-26, 01:14:00,VALID,916.93,VALID,0,VALID,98.9486,VALID,0,VALID,18.6151,VALID,218,VALID,0,
2005-11-26, 01:15:00,VALID,916.938,VALID,0,VALID,98.6918,VALID,0,VALID,18.5985,VALID,218,VALID,0,
2005-11-26, 01:16:00,VALID,916.938,VALID,0,VALID,98.5761,VALID,0.0169808,VALID,18.5657,VALID,218,VALID,0,
2005-11-26, 01:17:00,VALID,916.922,VALID,0,VALID,98.6129,VALID,0,VALID,18.5734,VALID,218,VALID,0,
2005-11-26, 01:18:00,VALID,916.925,VALID,0,VALID,98.5023,VALID,-0.0169808,VALID,18.5471,VALID,218,VALID,0,
2005-11-26, 01:19:00,VALID,916.91,VALID,0,VALID,98.4502,VALID,0,VALID,18.5438,VALID,218,VALID,0,
2005-11-26, 01:20:00,VALID,916.9,VALID,0,VALID,98.5964,VALID,0,VALID,18.5891,VALID,219,VALID,0,
2005-11-26, 01:21:00,VALID,916.895,VALID,0,VALID,99.1279,VALID,0,VALID,18.6763,VALID,218,VALID,0,
2005-11-26, 01:22:00,VALID,916.882,VALID,0,VALID,99.0275,VALID,0,VALID,18.7114,VALID,219,VALID,0,
2005-11-26, 01:23:00,VALID,916.864,VALID,0,VALID,98.9423,VALID,-0.0339617,VALID,18.7183,VALID,218,VALID,0,
2005-11-26, 01:24:00,VALID,916.859,VALID,0,VALID,98.9283,VALID,-0.0339617,VALID,18.7118,VALID,218,VALID,0,
2005-11-26, 01:25:00,VALID,916.839,VALID,0,VALID,98.8584,VALID,-0.0169808,VALID,18.7215,VALID,218,VALID,0,
2005-11-26, 01:26:00,VALID,916.823,VALID,0,VALID,98.8316,VALID,0,VALID,18.7081,VALID,218,VALID,0,
2005-11-26, 01:27:00,VALID,916.82,VALID,0,VALID,98.9792,VALID,0,VALID,18.7213,VALID,218,VALID,0,
2005-11-26, 01:28:00,VALID,916.782,VALID,0,VALID,98.9423,VALID,0,VALID,18.7411,VALID,218,VALID,0.061942,
2005-11-26, 01:29:00,VALID,916.768,VALID,0,VALID,98.7375,VALID,0,VALID,18.7471,VALID,219,VALID,0.0189732,
2005-11-26, 01:30:00,VALID,916.746,VALID,0,VALID,98.3573,VALID,0,VALID,18.7444,VALID,219,VALID,0,
2005-11-26, 01:31:00,VALID,916.75,VALID,0,VALID,98.1641,VALID,-0.0169808,VALID,18.7285,VALID,218,VALID,0,
2005-11-26, 01:32:00,VALID,916.711,VALID,0,VALID,98.1323,VALID,0.0169808,VALID,18.7086,VALID,218,VALID,0,
2005-11-26, 01:33:00,VALID,916.711,VALID,0,VALID,98.6117,VALID,0.0339617,VALID,18.7116,VALID,219,VALID,0,
2005-11-26, 01:34:00,VALID,916.679,VALID,0,VALID,98.7948,VALID,0.0169808,VALID,18.7305,VALID,218,VALID,0,
2005-11-26, 01:35:00,VALID,916.648,VALID,0,VALID,98.7325,VALID,0,VALID,18.7377,VALID,218,VALID,0.00729167,
2005-11-26, 01:36:00,VALID,916.603,VALID,0,VALID,98.9359,VALID,0.0169808,VALID,18.7571,VALID,218,VALID,0.269345,
2005-11-26, 01:37:00,VALID,916.581,VALID,0,VALID,98.9474,VALID,0,VALID,18.7695,VALID,219,VALID,0.355741,
2005-11-26, 01:38:00,VALID,916.569,VALID,0,VALID,99.002,VALID,0.0169808,VALID,18.7765,VALID,219,VALID,0.287997,
2005-11-26, 01:39:00,VALID,916.57,VALID,0,VALID,98.866,VALID,0.0169808,VALID,18.7633,VALID,219,VALID,0.00950169,
2005-11-26, 01:40:00,VALID,916.558,VALID,0,VALID,98.44,VALID,0,VALID,18.7183,VALID,219,VALID,0.000186012,
2005-11-26, 01:41:00,VALID,916.546,VALID,0,VALID,97.6999,VALID,0.0679233,VALID,18.6343,VALID,219,VALID,0.200921,
2005-11-26, 01:42:00,VALID,916.542,VALID,0,VALID,97.574,VALID,0.0509425,VALID,18.5237,VALID,219,VALID,0.283918,
2005-11-26, 01:43:00,VALID,916.534,VALID,0,VALID,98.3802,VALID,0.0169808,VALID,18.4984,VALID,219,VALID,0.0952744,
2005-11-26, 01:44:00,VALID,916.518,VALID,0,VALID,98.7299,VALID,0.0509425,VALID,18.4688,VALID,219,VALID,0.0646802,
2005-11-26, 01:45:00,VALID,916.509,VALID,0,VALID,99.1241,VALID,0.0339617,VALID,18.4658,VALID,219,VALID,0.0218395,
2005-11-26, 01:46:00,VALID,916.516,VALID,0,VALID,99.2042,VALID,0.0339617,VALID,18.4529,VALID,219,VALID,0,
2005-11-26, 01:47:00,VALID,916.511,VALID,0,VALID,99.3009,VALID,0.0339617,VALID,18.4303,VALID,219,VALID,0,
2005-11-26, 01:48:00,VALID,916.476,VALID,0,VALID,99.4408,VALID,-0.0849042,VALID,18.4157,VALID,219,VALID,0,
2005-11-26, 01:49:00,VALID,916.435,VALID,0,VALID,99.4611,VALID,-0.0679233,VALID,18.3964,VALID,219,VALID,0.0664971,
2005-11-26, 01:50:00,VALID,916.429,VALID,0,VALID,98.9881,VALID,-0.0679233,VALID,18.3154,VALID,256,VALID,0.39596,
2005-11-26, 01:51:00,VALID,916.406,VALID,0,VALID,98.9614,VALID,-0.0339617,VALID,18.2251,VALID,346,VALID,0.475142,
2005-11-26, 01:52:00,VALID,916.398,VALID,0,VALID,99.615,VALID,-0.0849042,VALID,18.1857,VALID,346,VALID,0.374092,
2005-11-26, 01:53:00,VALID,916.397,VALID,0,VALID,99.97,VALID,-0.0509425,VALID,18.199,VALID,349,VALID,0.321039,
2005-11-26, 01:54:00,VALID,916.382,VALID,0,VALID,100,VALID,-0.0509425,VALID,18.2217,VALID,350,VALID,0.141183,
2005-11-26, 01:55:00,VALID,916.366,VALID,0,VALID,99.9977,VALID,-0.0169808,VALID,18.176,VALID,350,VALID,0.241279,
2005-11-26, 01:56:00,VALID,916.34,VALID,0,VALID,99.9914,VALID,-0.0339617,VALID,18.1667,VALID,350,VALID,0.212426,
2005-11-26, 01:57:00,VALID,916.318,VALID,0,VALID,99.2284,VALID,-0.0679233,VALID,18.0636,VALID,350,VALID,0.602121,
2005-11-26, 01:58:00,VALID,916.289,VALID,0,VALID,98.3446,VALID,-0.101885,VALID,17.8861,VALID,359,VALID,0.666921,
2005-11-26, 01:59:00,VALID,916.28,VALID,0,VALID,99.6442,VALID,-0.0509425,VALID,17.8861,VALID,1,VALID,0.498547,
2005-11-26, 02:00:00,VALID,916.27,VALID,0,VALID,100,VALID,-0.0509425,VALID,17.8758,VALID,1,VALID,0.148793,
2005-11-26, 02:01:00,VALID,916.244,VALID,0,VALID,100,VALID,-0.0339617,VALID,17.8697,VALID,1,VALID,0,
2005-11-26, 02:02:00,VALID,916.225,VALID,0,VALID,100,VALID,-0.0679233,VALID,17.8338,VALID,1,VALID,0,
2005-11-26, 02:03:00,VALID,916.199,VALID,0,VALID,100,VALID,-0.101885,VALID,17.8347,VALID,1,VALID,0,
2005-11-26, 02:04:00,VALID,916.168,VALID,0,VALID,100,VALID,-0.0849042,VALID,17.828,VALID,1,VALID,0,
2005-11-26, 02:05:00,VALID,916.145,VALID,0,VALID,100,VALID,-0.0679233,VALID,17.8084,VALID,1,VALID,0,
2005-11-26, 02:06:00,VALID,916.125,VALID,0,VALID,100,VALID,-0.0849042,VALID,17.8056,VALID,1,VALID,0,
2005-11-26, 02:07:00,VALID,916.116,VALID,0,VALID,100,VALID,-0.0509425,VALID,17.8054,VALID,1,VALID,0,
2005-11-26, 02:08:00,VALID,916.111,VALID,0,VALID,100,VALID,-0.0509425,VALID,17.7888,VALID,1,VALID,0,
2005-11-26, 02:09:00,VALID,916.118,VALID,0,VALID,100,VALID,-0.0849042,VALID,17.7668,VALID,1,VALID,0,
2005-11-26, 02:10:00,VALID,916.117,VALID,0,VALID,100,VALID,-0.0339617,VALID,17.7308,VALID,1,VALID,0,
2005-11-26, 02:11:00,VALID,916.087,VALID,0,VALID,100,VALID,-0.0509425,VALID,17.744,VALID,1,VALID,0,
2005-11-26, 02:12:00,VALID,916.054,VALID,0,VALID,100,VALID,-0.0339617,VALID,17.7472,VALID,1,VALID,0,
2005-11-26, 02:13:00,VALID,916.016,VALID,0,VALID,100,VALID,-0.0849042,VALID,17.7991,VALID,1,VALID,0,
2005-11-26, 02:14:00,VALID,916.013,VALID,0,VALID,100,VALID,-0.0679233,VALID,17.8471,VALID,1,VALID,0,
2005-11-26, 02:15:00,VALID,916.026,VALID,0,VALID,100,VALID,-0.0849042,VALID,17.9154,VALID,1,VALID,0.0945313,
2005-11-26, 02:16:00,VALID,916.018,VALID,0,VALID,100,VALID,-0.0849042,VALID,17.9413,VALID,1,VALID,0.0763889,
2005-11-26, 02:17:00,VALID,915.983,VALID,0,VALID,100,VALID,-0.0679233,VALID,17.948,VALID,1,VALID,0,
2005-11-26, 02:18:00,VALID,915.964,VALID,0,VALID,100,VALID,0,VALID,17.9397,VALID,1,VALID,0,
2005-11-26, 02:19:00,VALID,915.923,VALID,0,VALID,100,VALID,0,VALID,17.972,VALID,1,VALID,0,
2005-11-26, 02:20:00,VALID,915.919,VALID,0,VALID,100,VALID,0.0339617,VALID,18.0108,VALID,1,VALID,0,
2005-11-26, 02:21:00,VALID,915.91,VALID,0,VALID,100,VALID,0.0509425,VALID,18.0078,VALID,1,VALID,0,
2005-11-26, 02:22:00,VALID,915.875,VALID,0,VALID,100,VALID,0.0169808,VALID,18.0366,VALID,1,VALID,0,
2005-11-26, 02:23:00,VALID,915.847,VALID,0,VALID,100,VALID,0,VALID,18.0207,VALID,1,VALID,0.280449,
2005-11-26, 02:24:00,VALID,915.855,VALID,0,VALID,99.4242,VALID,0.0169808,VALID,17.8008,VALID,8,VALID,0.570313,
2005-11-26, 02:25:00,VALID,915.879,VALID,0,VALID,99.0593,VALID,0.0339617,VALID,17.6587,VALID,11,VALID,0.0754573,
2005-11-26, 02:26:00,VALID,915.88,VALID,0,VALID,99.8787,VALID,0.0169808,VALID,17.6584,VALID,11,VALID,0,
2005-11-26, 02:27:00,VALID,915.874,VALID,0,VALID,100,VALID,0.0339617,VALID,17.7205,VALID,11,VALID,0,
2005-11-26, 02:28:00,VALID,915.867,VALID,0,VALID,100,VALID,0.0169808,VALID,17.7653,VALID,11,VALID,0,
2005-11-26, 02:29:00,VALID,915.869,VALID,0,VALID,100,VALID,0.0169808,VALID,17.7943,VALID,11,VALID,0.120094,
2005-11-26, 02:30:00,VALID,915.854,VALID,0,VALID,100,VALID,0,VALID,17.8626,VALID,8,VALID,0.397347,
2005-11-26, 02:31:00,VALID,915.857,VALID,0,VALID,100,VALID,0.0509425,VALID,17.9076,VALID,8,VALID,0.285792,
2005-11-26, 02:32:00,VALID,915.86,VALID,0,VALID,100,VALID,0,VALID,17.9528,VALID,8,VALID,0.379861,
2005-11-26, 02:33:00,VALID,915.876,VALID,0,VALID,100,VALID,0.0169808,VALID,17.9757,VALID,8,VALID,0.118555,
2005-11-26, 02:34:00,VALID,915.882,VALID,0,VALID,100,VALID,0.0169808,VALID,17.9621,VALID,8,VALID,0.143787,
2005-11-26, 02:35:00,VALID,915.894,VALID,0,VALID,100,VALID,0.0169808,VALID,17.9427,VALID,8,VALID,0.395198,
2005-11-26, 02:36:00,VALID,915.881,VALID,0,VALID,100,VALID,0.0339617,VALID,17.8981,VALID,12,VALID,0.628472,
2005-11-26, 02:37:00,VALID,915.888,VALID,0,VALID,99.9107,VALID,0.0509425,VALID,17.8301,VALID,13,VALID,0.720846,
2005-11-26, 02:38:00,VALID,915.888,VALID,0,VALID,99.9713,VALID,0.0169808,VALID,17.7846,VALID,13,VALID,0.530523,
2005-11-26, 02:39:00,VALID,915.897,VALID,0,VALID,100,VALID,0,VALID,17.7883,VALID,13,VALID,0.226749,
2005-11-26, 02:40:00,VALID,915.915,VALID,0,VALID,100,VALID,0.0339617,VALID,17.7749,VALID,13,VALID,0,
2005-11-26, 02:41:00,VALID,915.929,VALID,0,VALID,100,VALID,0.0339617,VALID,17.7756,VALID,13,VALID,0,
2005-11-26, 02:42:00,VALID,915.94,VALID,0,VALID,99.9977,VALID,0,VALID,17.7597,VALID,13,VALID,0,
2005-11-26, 02:43:00,VALID,915.942,VALID,0,VALID,100,VALID,0,VALID,17.7565,VALID,13,VALID,0,
2005-11-26, 02:44:00,VALID,915.932,VALID,0,VALID,100,VALID,0,VALID,17.7498,VALID,13,VALID,0.140008,
2005-11-26, 02:45:00,VALID,915.914,VALID,0,VALID,99.9903,VALID,0.0169808,VALID,17.7269,VALID,13,VALID,0.177734,
2005-11-26, 02:46:00,VALID,915.914,VALID,0,VALID,99.8934,VALID,0,VALID,17.6849,VALID,13,VALID,0.10434,
2005-11-26, 02:47:00,VALID,915.918,VALID,0,VALID,99.7841,VALID,0.0339617,VALID,17.6363,VALID,13,VALID,0.277902,
2005-11-26, 02:48:00,VALID,915.914,VALID,0,VALID,99.8502,VALID,-0.0509425,VALID,17.5924,VALID,13,VALID,0.415396,
2005-11-26, 02:49:00,VALID,915.881,VALID,0,VALID,99.984,VALID,-0.0509425,VALID,17.5568,VALID,13,VALID,0.326079,
2005-11-26, 02:50:00,VALID,915.857,VALID,0,VALID,99.8662,VALID,-0.0509425,VALID,17.4985,VALID,13,VALID,0.0955669,
2005-11-26, 02:51:00,VALID,915.854,VALID,0,VALID,100,VALID,-0.0339617,VALID,17.5088,VALID,13,VALID,0.0571057,
2005-11-26, 02:52:00,VALID,915.843,VALID,0,VALID,100,VALID,-0.0169808,VALID,17.5825,VALID,13,VALID,0.0165777,
2005-11-26, 02:53:00,VALID,915.841,VALID,0,VALID,100,VALID,-0.0509425,VALID,17.6538,VALID,13,VALID,0.297783,
2005-11-26, 02:54:00,VALID,915.84,VALID,0,VALID,100,VALID,-0.0849042,VALID,17.6925,VALID,13,VALID,0.318182,
2005-11-26, 02:55:00,VALID,915.842,VALID,0,VALID,100,VALID,-0.0509425,VALID,17.7382,VALID,13,VALID,0.175781,
2005-11-26, 02:56:00,VALID,915.844,VALID,0,VALID,100,VALID,-0.0509425,VALID,17.7539,VALID,13,VALID,0,
2005-11-26, 02:57:00,VALID,915.809,VALID,0,VALID,100,VALID,-0.0849042,VALID,17.7991,VALID,13,VALID,0.00090843,
2005-11-26, 02:58:00,VALID,915.771,VALID,0,VALID,99.0486,VALID,-0.0679233,VALID,17.7121,VALID,13,VALID,0.20827,
2005-11-26, 02:59:00,VALID,915.754,VALID,0,VALID,97.8958,VALID,-0.0849042,VALID,17.4953,VALID,13,VALID,0.684659,
2005-11-26, 03:00:00,VALID,915.747,VALID,0,VALID,99.2347,VALID,-0.0849042,VALID,17.4858,VALID,13,VALID,0.687855,
2005-11-26, 03:01:00,VALID,915.76,VALID,0,VALID,99.9723,VALID,-0.0679233,VALID,17.5637,VALID,13,VALID,0.440407,
2005-11-26, 03:02:00,VALID,915.78,VALID,0,VALID,100,VALID,-0.0849042,VALID,17.6415,VALID,13,VALID,0.372514,
2005-11-26, 03:03:00,VALID,915.779,VALID,0,VALID,100,VALID,0.0339617,VALID,17.6753,VALID,13,VALID,0.0761265,
2005-11-26, 03:04:00,VALID,915.781,VALID,0,VALID,100,VALID,0,VALID,17.6847,VALID,13,VALID,0,
2005-11-26, 03:05:00,VALID,915.787,VALID,0,VALID,100,VALID,0.0169808,VALID,17.7433,VALID,13,VALID,0.363181,
2005-11-26, 03:06:00,VALID,915.787,VALID,0,VALID,100,VALID,0.0169808,VALID,17.8012,VALID,6,VALID,0.486328,
2005-11-26, 03:07:00,VALID,915.756,VALID,0,VALID,99.4364,VALID,0.0339617,VALID,17.7239,VALID,5,VALID,0.717842,
2005-11-26, 03:08:00,VALID,915.728,VALID,0,VALID,98.7655,VALID,0.0169808,VALID,17.5691,VALID,5,VALID,1.06414,
2005-11-26, 03:09:00,VALID,915.715,VALID,0,VALID,99.9926,VALID,0,VALID,17.6462,VALID,5,VALID,1.22504,
2005-11-26, 03:10:00,VALID,915.719,VALID,0,VALID,100,VALID,0,VALID,17.7601,VALID,5,VALID,0.643415,
2005-11-26, 03:11:00,VALID,915.697,VALID,0,VALID,100,VALID,0.0169808,VALID,17.7948,VALID,5,VALID,0.462798,
2005-11-26, 03:12:00,VALID,915.68,VALID,0,VALID,100,VALID,0.0509425,VALID,17.8596,VALID,5,VALID,0.152716,
2005-11-26, 03:13:00,VALID,915.644,VALID,0,VALID,100,VALID,0.0169808,VALID,17.8495,VALID,5,VALID,0.348611,
2005-11-26, 03:14:00,VALID,915.629,VALID,0,VALID,100,VALID,0.0169808,VALID,17.882,VALID,5,VALID,0.241443,
2005-11-26, 03:15:00,VALID,915.612,VALID,0,VALID,100,VALID,0.0509425,VALID,17.8882,VALID,5,VALID,0,
2005-11-26, 03:16:00,VALID,915.607,VALID,0,VALID,100,VALID,0.0339617,VALID,17.8979,VALID,5,VALID,0,
2005-11-26, 03:17:00,VALID,915.611,VALID,0,VALID,100,VALID,0.0169808,VALID,17.9242,VALID,5,VALID,0,
2005-11-26, 03:18:00,VALID,915.602,VALID,0,VALID,100,VALID,0.0169808,VALID,17.9302,VALID,5,VALID,0,
2005-11-26, 03:19:00,VALID,915.588,VALID,0,VALID,100,VALID,0.0339617,VALID,17.9496,VALID,5,VALID,0.0414931,
2005-11-26, 03:20:00,VALID,915.588,VALID,0,VALID,100,VALID,0.0509425,VALID,17.9591,VALID,5,VALID,0.464648,
2005-11-26, 03:21:00,VALID,915.599,VALID,0,VALID,100,VALID,0,VALID,17.9501,VALID,5,VALID,0.2258,
2005-11-26, 03:22:00,VALID,915.586,VALID,0,VALID,100,VALID,0.0169808,VALID,17.9471,VALID,5,VALID,0.00497159,
2005-11-26, 03:23:00,VALID,915.576,VALID,0,VALID,100,VALID,0.0169808,VALID,17.9371,VALID,5,VALID,0,
2005-11-26, 03:24:00,VALID,915.584,VALID,0,VALID,100,VALID,0.0509425,VALID,17.9335,VALID,5,VALID,0,
2005-11-26, 03:25:00,VALID,915.589,VALID,0,VALID,99.998,VALID,0,VALID,17.9145,VALID,5,VALID,0,
2005-11-26, 03:26:00,VALID,915.572,VALID,0,VALID,100,VALID,0.0169808,VALID,17.8977,VALID,5,VALID,0,
2005-11-26, 03:27:00,VALID,915.556,VALID,0,VALID,100,VALID,0,VALID,17.9244,VALID,5,VALID,0.195676,
2005-11-26, 03:28:00,VALID,915.527,VALID,0,VALID,100,VALID,0.0169808,VALID,17.921,VALID,5,VALID,0.388765,
2005-11-26, 03:29:00,VALID,915.532,VALID,0,VALID,100,VALID,0.0339617,VALID,17.9277,VALID,5,VALID,0.386623,
2005-11-26, 03:30:00,VALID,915.538,VALID,0,VALID,100,VALID,0,VALID,17.9821,VALID,5,VALID,0.262386,
2005-11-26, 03:31:00,VALID,915.523,VALID,0,VALID,100,VALID,0.0169808,VALID,18.0017,VALID,5,VALID,0.194247,
2005-11-26, 03:32:00,VALID,915.514,VALID,0,VALID,100,VALID,0,VALID,18.005,VALID,5,VALID,0.357851,
2005-11-26, 03:33:00,VALID,915.499,VALID,0,VALID,99.5921,VALID,0,VALID,17.9369,VALID,5,VALID,0.478924,
2005-11-26, 03:34:00,VALID,915.487,VALID,0,VALID,98.2493,VALID,0.0169808,VALID,17.7622,VALID,12,VALID,0.713034,
2005-11-26, 03:35:00,VALID,915.462,VALID,0,VALID,97.7571,VALID,0.0339617,VALID,17.5491,VALID,16,VALID,0.917081,
2005-11-26, 03:36:00,VALID,915.477,VALID,0,VALID,99.2576,VALID,0,VALID,17.5267,VALID,23,VALID,0.9246,
2005-11-26, 03:37:00,VALID,915.473,VALID,0,VALID,99.9563,VALID,0,VALID,17.5428,VALID,25,VALID,0.80625,
2005-11-26, 03:38:00,VALID,915.467,VALID,0,VALID,99.9006,VALID,0.0339617,VALID,17.5142,VALID,25,VALID,0.74564,
2005-11-26, 03:39:00,VALID,915.459,VALID,0,VALID,100,VALID,0,VALID,17.5038,VALID,25,VALID,0.574128,
2005-11-26, 03:40:00,VALID,915.451,VALID,0,VALID,100,VALID,0.0169808,VALID,17.5239,VALID,19,VALID,0.490663,
2005-11-26, 03:41:00,VALID,915.444,VALID,0,VALID,100,VALID,-0.0169808,VALID,17.5211,VALID,351,VALID,0.507292,
2005-11-26, 03:42:00,VALID,915.445,VALID,0,VALID,100,VALID,-0.0849042,VALID,17.5868,VALID,326,VALID,0.539773,
2005-11-26, 03:43:00,VALID,915.447,VALID,0,VALID,100,VALID,-0.0849042,VALID,17.6219,VALID,326,VALID,0.0373884,
2005-11-26, 03:44:00,VALID,915.442,VALID,0,VALID,100,VALID,-0.0679233,VALID,17.6057,VALID,326,VALID,0,